This demonstration page uses our WeatherBlox Daily Observations layout. Learn more.

Left ArrowRight Arrow

44.8408, -93.29828

Hourly Observations for September 26, 2016

Temp ( °F °C ) Dew Point ( °F °C ) Humidity (%) Winds ( mph kmh ) Pressure ( in mb ) Visibility ( mi km ) Precip ( " mm )
12:53 am 00:53 Mostly Cloudy 56 13.3 44 6.7 65 65 W 10 17 29.96 1015 10 16 0.00 0.00
1:53 am 01:53 Mostly Cloudy 55 12.8 43 6.1 64 64 WNW 14 22 29.96 1015 10 16 0.00 0.00
2:53 am 02:53 Mostly Clear 54 12.2 43 6.1 67 67 W 8 13 29.95 1014 10 16 0.00 0.00
3:53 am 03:53 Mostly Clear 52 11.1 43 6.1 72 72 WSW 12 19 29.93 1014 10 16 0.00 0.00
4:53 am 04:53 Clear 52 11.1 41 5 66 66 W 14 22 29.93 1014 10 16 0.00 0.00
5:53 am 05:53 Clear 52 11.1 40 4.4 64 64 W 15 24 29.93 1014 10 16 0.00 0.00
6:53 am 06:53 Mostly Clear 51 10.6 40 4.4 66 66 W 15 24 29.94 1014 10 16 0.00 0.00
7:53 am 07:53 Mostly Sunny 52 11.1 39 3.9 61 61 W 14 22 29.95 1014 10 16 0.00 0.00
8:53 am 08:53 Sunny 54 12.2 40 4.4 59 59 W 16 26 29.94 1014 10 16 0.00 0.00
9:53 am 09:53 Sunny 56 13.3 40 4.4 55 55 W 13 20 29.94 1014 10 16 0.00 0.00
10:53 am 10:53 Sunny 59 15 40 4.4 49 49 W 20 31 29.93 1013 10 16 0.00 0.00
11:53 am 11:53 Partly Cloudy 60 15.6 39 3.9 46 46 WNW 23 37 29.92 1013 10 16 0.00 0.00
12:53 pm 12:53 Partly Cloudy 60 15.6 37 2.8 42 42 NW 25 41 29.92 1013 10 16 0.00 0.00
1:53 pm 13:53 Partly Cloudy 62 16.7 39 3.9 43 43 NW 18 30 29.91 1013 10 16 0.00 0.00
2:53 pm 14:53 Mostly Sunny 64 17.8 37 2.8 37 37 WNW 21 33 29.89 1012 10 16 0.00 0.00
3:53 pm 15:53 Mostly Sunny 65 18.3 34 1.1 32 32 WNW 22 35 29.88 1012 10 16 0.00 0.00
4:53 pm 16:53 Mostly Sunny 66 18.9 32 0 28 28 NW 28 44 29.88 1012 10 16 0.00 0.00
5:53 pm 17:53 Mostly Sunny 65 18.3 32 0 29 29 NW 25 41 29.87 1012 10 16 0.00 0.00
6:53 pm 18:53 Mostly Sunny 61 16.1 33 0.6 35 35 NW 15 24 29.88 1012 10 16 0.00 0.00
7:53 pm 19:53 Clear 59 15 34 1.1 39 39 WNW 9 15 29.88 1012 10 16 0.00 0.00
8:53 pm 20:53 Clear 58 14.4 36 2.2 44 44 W 10 17 29.88 1012 10 16 0.00 0.00
9:53 pm 21:53 Clear 58 14.4 35 1.7 42 42 WNW 14 22 29.87 1012 10 16 0.00 0.00
10:53 pm 22:53 Clear 57 13.9 36 2.2 45 45 WNW 12 19 29.88 1012 10 16 0.00 0.00
11:53 pm 23:53 Clear 56 13.3 36 2.2 47 47 W 12 19 29.86 1011 10 16 0.00 0.00

Powered by AerisWeather